Time,TemperatureF,DewpointF,PressureIn,WindDirection,WindDirectionDegrees,WindSpeedMPH,WindSpeedGustMPH,Humidity,HourlyPrecipIn,Conditions,Clouds,dailyrainin,SoftwareType,DateUTC
2013-01-23 00:06:00,13.1,12.9,30.11,NW,315,11.4,-999.0,99,-99.99,,,0.00,Acu-Link.com,2013-01-23 05:06:00,
2013-01-23 00:22:00,12.6,12.3,30.11,West,270,6.3,-999.0,99,-99.99,,,0.00,Acu-Link.com,2013-01-23 05:22:00,
2013-01-23 00:52:00,12.2,12.0,30.11,SW,225,4.3,-999.0,99,-99.99,,,0.00,Acu-Link.com,2013-01-23 05:52:00,
2013-01-23 01:07:00,11.7,11.4,30.12,West,270,6.3,-999.0,99,-99.99,,,0.00,Acu-Link.com,2013-01-23 06:07:00,
2013-01-23 01:22:00,11.3,11.1,30.12,SW,225,4.7,-999.0,99,-99.99,,,0.00,Acu-Link.com,2013-01-23 06:22:00,
2013-01-23 01:38:00,11.1,10.9,30.13,NW,315,2.2,-999.0,99,-99.99,,,0.00,Acu-Link.com,2013-01-23 06:38:00,
2013-01-23 01:53:00,10.9,10.7,30.14,West,270,7.4,-999.0,99,-99.99,,,0.00,Acu-Link.com,2013-01-23 06:53:00,
2013-01-23 02:08:00,11.1,10.9,30.14,West,270,4.3,-999.0,99,-99.99,,,0.00,Acu-Link.com,2013-01-23 07:08:00,
2013-01-23 02:23:00,10.6,10.4,30.14,West,270,3.1,-999.0,99,-99.99,,,0.00,Acu-Link.com,2013-01-23 07:23:00,
2013-01-23 02:38:00,10.4,10.2,30.15,West,270,4.7,-999.0,99,-99.99,,,0.00,Acu-Link.com,2013-01-23 07:38:00,
2013-01-23 02:54:00,10.2,10.0,30.15,North,0,3.1,-999.0,99,-99.99,,,0.00,Acu-Link.com,2013-01-23 07:54:00,
2013-01-23 03:09:00,9.9,9.6,30.15,WSW,247,4.3,-999.0,99,-99.99,,,0.00,Acu-Link.com,2013-01-23 08:09:00,
2013-01-23 03:24:00,9.7,9.5,30.15,WSW,247,5.8,-999.0,99,-99.99,,,0.00,Acu-Link.com,2013-01-23 08:24:00,
2013-01-23 03:39:00,9.7,9.5,30.15,West,270,4.7,-999.0,99,-99.99,,,0.00,Acu-Link.com,2013-01-23 08:39:00,
2013-01-23 03:55:00,9.5,9.3,30.15,West,270,3.8,-999.0,99,-99.99,,,0.00,Acu-Link.com,2013-01-23 08:55:00,
2013-01-23 04:15:00,9.5,9.3,30.15,West,270,5.1,-999.0,99,-99.99,,,0.00,Acu-Link.com,2013-01-23 09:15:00,
2013-01-23 04:30:00,9.0,8.7,30.15,West,270,4.3,-999.0,99,-99.99,,,0.00,Acu-Link.com,2013-01-23 09:30:00,
2013-01-23 04:45:00,9.0,8.7,30.16,NW,315,5.1,-999.0,99,-99.99,,,0.00,Acu-Link.com,2013-01-23 09:45:00,
2013-01-23 05:00:00,8.6,8.4,30.16,West,270,6.3,-999.0,99,-99.99,,,0.00,Acu-Link.com,2013-01-23 10:00:00,
2013-01-23 05:15:00,8.4,8.2,30.16,West,270,6.7,-999.0,99,-99.99,,,0.00,Acu-Link.com,2013-01-23 10:15:00,
2013-01-23 05:30:00,8.2,8.0,30.16,WNW,292,4.7,-999.0,99,-99.99,,,0.00,Acu-Link.com,2013-01-23 10:30:00,
2013-01-23 05:45:00,8.2,8.0,30.17,West,270,4.7,-999.0,99,-99.99,,,0.00,Acu-Link.com,2013-01-23 10:45:00,
2013-01-23 06:00:00,8.2,8.0,30.17,WSW,247,6.7,-999.0,99,-99.99,,,0.00,Acu-Link.com,2013-01-23 11:00:00,
2013-01-23 06:16:00,8.1,7.8,30.17,North,0,3.8,-999.0,99,-99.99,,,0.00,Acu-Link.com,2013-01-23 11:16:00,
2013-01-23 06:46:00,8.1,7.8,30.18,WSW,247,4.7,-999.0,99,-99.99,,,0.00,Acu-Link.com,2013-01-23 11:46:00,
2013-01-23 07:01:00,7.9,7.7,30.18,West,270,7.4,-999.0,99,-99.99,,,0.00,Acu-Link.com,2013-01-23 12:01:00,
2013-01-23 07:32:00,7.9,7.7,30.18,West,270,6.7,-999.0,99,-99.99,,,0.00,Acu-Link.com,2013-01-23 12:32:00,
2013-01-23 07:47:00,7.9,7.7,30.19,WSW,247,4.7,-999.0,99,-99.99,,,0.00,Acu-Link.com,2013-01-23 12:47:00,
2013-01-23 08:02:00,9.5,9.3,30.19,WSW,247,4.3,-999.0,99,-99.99,,,0.00,Acu-Link.com,2013-01-23 13:02:00,
2013-01-23 08:17:00,9.7,9.5,30.20,West,270,6.7,-999.0,99,-99.99,,,0.00,Acu-Link.com,2013-01-23 13:17:00,
2013-01-23 08:33:00,10.2,10.0,30.20,WSW,247,7.8,-999.0,99,-99.99,,,0.00,Acu-Link.com,2013-01-23 13:33:00,
2013-01-23 08:48:00,10.6,10.4,30.20,WSW,247,4.7,-999.0,99,-99.99,,,0.00,Acu-Link.com,2013-01-23 13:48:00,
2013-01-23 09:03:00,11.7,11.4,30.20,NNW,337,6.3,-999.0,99,-99.99,,,0.00,Acu-Link.com,2013-01-23 14:03:00,
2013-01-23 09:18:00,12.4,12.2,30.20,WSW,247,5.8,-999.0,99,-99.99,,,0.00,Acu-Link.com,2013-01-23 14:18:00,
2013-01-23 09:33:00,13.1,12.9,30.20,West,270,4.3,-999.0,99,-99.99,,,0.00,Acu-Link.com,2013-01-23 14:33:00,
2013-01-23 09:49:00,14.0,13.8,30.20,West,270,3.8,-999.0,99,-99.99,,,0.00,Acu-Link.com,2013-01-23 14:49:00,
2013-01-23 10:04:00,14.2,14.0,30.20,WSW,247,5.1,-999.0,99,-99.99,,,0.00,Acu-Link.com,2013-01-23 15:04:00,
2013-01-23 10:19:00,15.3,15.0,30.20,WNW,292,6.3,-999.0,99,-99.99,,,0.00,Acu-Link.com,2013-01-23 15:19:00,
2013-01-23 10:34:00,15.8,15.6,30.20,West,270,4.3,-999.0,99,-99.99,,,0.00,Acu-Link.com,2013-01-23 15:34:00,
2013-01-23 10:49:00,16.0,15.7,30.19,WSW,247,9.8,-999.0,99,-99.99,,,0.00,Acu-Link.com,2013-01-23 15:49:00,
2013-01-23 11:05:00,17.6,17.4,30.18,West,270,7.8,-999.0,99,-99.99,,,0.00,Acu-Link.com,2013-01-23 16:05:00,
2013-01-23 11:20:00,17.6,17.4,30.18,NE,45,6.7,-999.0,99,-99.99,,,0.00,Acu-Link.com,2013-01-23 16:20:00,
2013-01-23 11:35:00,17.2,17.0,30.17,WSW,247,6.3,-999.0,99,-99.99,,,0.00,Acu-Link.com,2013-01-23 16:35:00,
2013-01-23 11:50:00,16.7,16.5,30.17,West,270,5.1,-999.0,99,-99.99,,,0.00,Acu-Link.com,2013-01-23 16:50:00,
2013-01-23 12:05:00,18.5,18.3,30.15,West,270,9.8,-999.0,99,-99.99,,,0.00,Acu-Link.com,2013-01-23 17:05:00,
2013-01-23 12:21:00,18.1,17.9,30.14,NNE,22,6.7,-999.0,99,-99.99,,,0.00,Acu-Link.com,2013-01-23 17:21:00,
2013-01-23 12:36:00,18.3,18.1,30.14,NNW,337,4.7,-999.0,99,-99.99,,,0.00,Acu-Link.com,2013-01-23 17:36:00,
2013-01-23 12:51:00,18.5,18.3,30.13,West,270,5.1,-999.0,99,-99.99,,,0.00,Acu-Link.com,2013-01-23 17:51:00,
2013-01-23 13:06:00,18.0,17.7,30.12,NNW,337,8.3,-999.0,99,-99.99,,,0.00,Acu-Link.com,2013-01-23 18:06:00,
2013-01-23 13:22:00,16.5,16.3,30.12,WSW,247,8.3,-999.0,99,-99.99,,,0.00,Acu-Link.com,2013-01-23 18:22:00,
2013-01-23 13:37:00,16.3,16.1,30.12,WNW,292,10.3,-999.0,99,-99.99,,,0.00,Acu-Link.com,2013-01-23 18:37:00,
2013-01-23 13:52:00,17.6,17.4,30.12,ESE,112,6.7,-999.0,99,-99.99,,,0.00,Acu-Link.com,2013-01-23 18:52:00,
2013-01-23 14:07:00,18.1,17.9,30.11,North,0,4.7,-999.0,99,-99.99,,,0.00,Acu-Link.com,2013-01-23 19:07:00,
2013-01-23 14:22:00,17.6,17.4,30.12,West,270,9.8,-999.0,99,-99.99,,,0.00,Acu-Link.com,2013-01-23 19:22:00,
2013-01-23 14:38:00,17.2,17.0,30.12,ESE,112,4.7,-999.0,99,-99.99,,,0.00,Acu-Link.com,2013-01-23 19:38:00,
2013-01-23 14:53:00,16.7,16.5,30.12,NW,315,4.7,-999.0,99,-99.99,,,0.00,Acu-Link.com,2013-01-23 19:53:00,
2013-01-23 15:08:00,17.2,17.0,30.12,West,270,4.3,-999.0,99,-99.99,,,0.00,Acu-Link.com,2013-01-23 20:08:00,
2013-01-23 15:23:00,16.9,16.6,30.12,West,270,11.4,-999.0,99,-99.99,,,0.00,Acu-Link.com,2013-01-23 20:23:00,
2013-01-23 15:38:00,16.3,16.1,30.13,West,270,7.4,-999.0,99,-99.99,,,0.00,Acu-Link.com,2013-01-23 20:38:00,
2013-01-23 15:54:00,16.7,16.5,30.12,SW,225,5.1,-999.0,99,-99.99,,,0.00,Acu-Link.com,2013-01-23 20:54:00,
2013-01-23 16:09:00,16.5,16.3,30.12,WNW,292,6.7,-999.0,99,-99.99,,,0.00,Acu-Link.com,2013-01-23 21:09:00,
2013-01-23 16:24:00,15.6,15.4,30.12,WNW,292,3.8,-999.0,99,-99.99,,,0.00,Acu-Link.com,2013-01-23 21:24:00,
2013-01-23 16:39:00,15.6,15.4,30.13,WNW,292,4.7,-999.0,99,-99.99,,,0.00,Acu-Link.com,2013-01-23 21:39:00,
2013-01-23 16:54:00,15.3,15.0,30.13,SW,225,8.9,-999.0,99,-99.99,,,0.00,Acu-Link.com,2013-01-23 21:54:00,
2013-01-23 17:10:00,14.9,14.7,30.14,NW,315,4.3,-999.0,99,-99.99,,,0.00,Acu-Link.com,2013-01-23 22:10:00,
2013-01-23 17:25:00,14.5,14.3,30.14,WNW,292,6.7,-999.0,99,-99.99,,,0.00,Acu-Link.com,2013-01-23 22:25:00,
2013-01-23 17:40:00,14.4,14.1,30.15,West,270,3.8,-999.0,99,-99.99,,,0.00,Acu-Link.com,2013-01-23 22:40:00,
2013-01-23 17:55:00,13.8,13.6,30.15,West,270,6.3,-999.0,99,-99.99,,,0.00,Acu-Link.com,2013-01-23 22:55:00,
2013-01-23 18:11:00,13.6,13.4,30.15,NNW,337,3.8,-999.0,99,-99.99,,,0.00,Acu-Link.com,2013-01-23 23:11:00,
2013-01-23 18:26:00,13.3,13.1,30.16,WNW,292,3.1,-999.0,99,-99.99,,,0.00,Acu-Link.com,2013-01-23 23:26:00,
2013-01-23 18:41:00,13.1,12.9,30.16,SW,225,5.1,-999.0,99,-99.99,,,0.00,Acu-Link.com,2013-01-23 23:41:00,
2013-01-23 18:56:00,12.9,12.7,30.17,West,270,4.7,-999.0,99,-99.99,,,0.00,Acu-Link.com,2013-01-23 23:56:00,
2013-01-23 19:11:00,12.7,12.5,30.17,NW,315,4.3,-999.0,99,-99.99,,,0.00,Acu-Link.com,2013-01-24 00:11:00,
2013-01-23 19:27:00,12.7,12.5,30.17,WNW,292,1.6,-999.0,99,-99.99,,,0.00,Acu-Link.com,2013-01-24 00:27:00,
2013-01-23 19:42:00,12.6,12.3,30.17,WNW,292,7.4,-999.0,99,-99.99,,,0.00,Acu-Link.com,2013-01-24 00:42:00,
2013-01-23 19:57:00,12.4,12.2,30.17,West,270,9.4,-999.0,99,-99.99,,,0.00,Acu-Link.com,2013-01-24 00:57:00,
2013-01-23 20:12:00,12.2,12.0,30.18,NNW,337,4.3,-999.0,99,-99.99,,,0.00,Acu-Link.com,2013-01-24 01:12:00,
2013-01-23 20:27:00,12.0,11.8,30.18,SSE,157,5.1,-999.0,99,-99.99,,,0.00,Acu-Link.com,2013-01-24 01:27:00,
2013-01-23 20:43:00,12.0,11.8,30.18,WNW,292,2.7,-999.0,99,-99.99,,,0.00,Acu-Link.com,2013-01-24 01:43:00,
2013-01-23 20:58:00,11.7,11.4,30.18,NW,315,5.1,-999.0,99,-99.99,,,0.00,Acu-Link.com,2013-01-24 01:58:00,
2013-01-23 21:13:00,11.5,11.3,30.18,NW,315,4.3,-999.0,99,-99.99,,,0.00,Acu-Link.com,2013-01-24 02:13:00,
2013-01-23 21:28:00,11.1,10.9,30.17,SW,225,2.7,-999.0,99,-99.99,,,0.00,Acu-Link.com,2013-01-24 02:28:00,
2013-01-23 21:44:00,10.8,10.5,30.17,NNE,22,4.3,-999.0,99,-99.99,,,0.00,Acu-Link.com,2013-01-24 02:44:00,
2013-01-23 21:59:00,10.2,10.0,30.18,West,270,1.6,-999.0,99,-99.99,,,0.00,Acu-Link.com,2013-01-24 02:59:00,
2013-01-23 22:14:00,10.0,9.8,30.18,NNW,337,4.7,-999.0,99,-99.99,,,0.00,Acu-Link.com,2013-01-24 03:14:00,
2013-01-23 22:29:00,9.9,9.6,30.18,WNW,292,3.8,-999.0,99,-99.99,,,0.00,Acu-Link.com,2013-01-24 03:29:00,
2013-01-23 22:44:00,9.5,9.3,30.18,NW,315,4.7,-999.0,99,-99.99,,,0.00,Acu-Link.com,2013-01-24 03:44:00,
2013-01-23 23:00:00,9.3,9.1,30.18,NW,315,5.8,-999.0,99,-99.99,,,0.00,Acu-Link.com,2013-01-24 04:00:00,
2013-01-23 23:15:00,9.1,8.9,30.18,NW,315,7.4,-999.0,99,-99.99,,,0.00,Acu-Link.com,2013-01-24 04:15:00,
2013-01-23 23:30:00,8.8,8.6,30.18,SW,225,0.0,-999.0,99,-99.99,,,0.00,Acu-Link.com,2013-01-24 04:30:00,
2013-01-23 23:45:00,8.4,8.2,30.18,ESE,112,3.1,-999.0,99,-99.99,,,0.00,Acu-Link.com,2013-01-24 04:45:00,